Deer Park, WA

7:34 AM PDT on April 23, 2017 (GMT -0700)
Deer Park

Weather History for KDEW - December, 2013

Change the Weather History Date:

Tuesday, December 17, 2013

  Actual Average Record
Temperature  
Mean Temperature 34 °F 25 °F  
Max Temperature 45 °F 31 °F 45 °F (2013)
Min Temperature 22 °F 18 °F 0 °F (2005)
Degree Days  
Heating Degree Days 31 40  
Month to date heating degree days 726 659  
Since 1 July heating degree days 2642 2662  
Cooling Degree Days 0 0  
Month to date cooling degree days 0 0  
Year to date cooling degree days 310 187  
Moisture  
Dew Point 25 °F    
Average Humidity 82    
Maximum Humidity 100    
Minimum Humidity 64    
Precipitation  
Precipitation 0.00 in 0.09 in 0.49 in (2008)
Month to date precipitation 0.35 1.52  
Year to date precipitation 17.77 20.91  
Sea Level Pressure  
Sea Level Pressure 30.12 in    
Wind  
Wind Speed 0 mph (NW)    
Max Wind Speed 6 mph    
Max Gust Speed 6 mph    
Visibility 6 miles    
Events Fog    
T = Trace of Precipitation, MM = Missing Value Source: NWS Daily Summary

Daily Weather History Graph

Daily Weather History Graph

Search for Another Location

Airport or City:

Trip Planner

Search our weather history database for the weather conditions in past years. The results will help you decide how hot, cold, wet, or windy it might be!

Date:

Astronomy

Dec. 17, 2013 Rise Set
Actual Time 7:34 AM PST 3:57 PM PST
Civil Twilight 6:58 AM PST 4:34 PM PST
Nautical Twilight 6:18 AM PST 5:13 PM PST
Astronomical Twilight 5:40 AM PST 5:51 PM PST
Moon 4:46 PM PST (12/17) 7:29 AM PST (12/17)
Length of Visible Light 9h 35m
Length of Day
8h 23m
Full, 100% of the Moon is Illuminated
Dec 17
Full
Dec 25
Last Quarter
Jan 1
New
Jan 7
First Quarter
Jan 15
Full

Hourly Weather History & Observations

Time (PST) Temp. Windchill Dew Point Humidity Pressure Visibility Wind Dir Wind Speed Gust Speed Precip Events Conditions
12:53 AM 27.0 °F - 26.1 °F 96% 30.35 in 10.0 mi Calm Calm - N/A   Clear
1:53 AM 26.1 °F - 23.0 °F 88% 30.33 in 5.0 mi Calm Calm - N/A   Partly Cloudy
2:53 AM 28.0 °F 24.2 °F 26.1 °F 92% 30.32 in 8.0 mi WNW 3.5 mph - N/A   Scattered Clouds
3:53 AM 28.0 °F - 27.0 °F 96% 30.30 in 8.0 mi Calm Calm - N/A   Partly Cloudy
4:53 AM 27.0 °F - 25.0 °F 92% 30.27 in 9.0 mi Calm Calm - N/A   Clear
5:53 AM 27.0 °F 23.0 °F 25.0 °F 92% 30.25 in 9.0 mi North 3.5 mph - N/A   Clear
6:53 AM 26.1 °F - 24.1 °F 92% 30.22 in 6.0 mi Calm Calm - N/A   Clear
7:34 AM 24.8 °F - 23.0 °F 93% 30.14 in 1.8 mi Calm Calm - N/A   Clear
7:37 AM 24.8 °F - 21.2 °F 86% 30.14 in 1.0 mi Calm Calm - N/A   Mist
7:44 AM 26.6 °F - 23.0 °F 86% 30.14 in 0.2 mi Calm Calm - N/A Fog Light Freezing Fog
7:53 AM 25.0 °F - 23.0 °F 92% 30.21 in 1.2 mi Calm Calm - N/A   Partly Cloudy
8:01 AM 24.8 °F - 21.2 °F 86% 30.14 in 2.5 mi Calm Calm - N/A   Partly Cloudy
8:18 AM 24.8 °F - 21.2 °F 86% 30.14 in 5.0 mi Calm Calm - N/A   Clear
8:53 AM 27.0 °F - 25.0 °F 92% 30.20 in 6.0 mi Calm Calm - N/A   Clear
9:53 AM 32.0 °F - 30.0 °F 92% 30.17 in 8.0 mi Calm Calm - N/A   Clear
10:53 AM 34.0 °F - 30.9 °F 89% 30.16 in 7.0 mi Calm Calm - N/A   Clear
11:53 AM 37.9 °F - 33.1 °F 83% 30.13 in 10.0 mi Calm Calm - N/A   Clear
12:53 PM 39.9 °F - 28.9 °F 65% 30.11 in 10.0 mi Calm Calm - N/A   Clear
1:53 PM 37.9 °F - 30.9 °F 76% 30.10 in 10.0 mi North - - N/A   Unknown
2:53 PM 37.0 °F - 30.0 °F 76% 30.08 in 10.0 mi Calm Calm - N/A   Clear
3:53 PM 33.1 °F - 28.9 °F 85% 30.07 in 10.0 mi Calm Calm - N/A   Clear
4:53 PM 32.0 °F - 28.9 °F 88% 30.06 in 10.0 mi Calm Calm - N/A   Clear
5:53 PM 30.0 °F - 27.0 °F 88% 30.04 in 10.0 mi Calm Calm - N/A   Clear
6:53 PM 30.9 °F - 28.0 °F 89% 30.05 in 10.0 mi Calm Calm - N/A   Clear
7:53 PM 30.0 °F - 27.0 °F 88% 30.05 in 10.0 mi Calm Calm - N/A   Clear
8:53 PM 27.0 °F - 25.0 °F 92% 30.03 in 10.0 mi Calm Calm - N/A   Clear
9:53 PM 27.0 °F - 25.0 °F 92% 30.03 in 8.0 mi Calm Calm - N/A   Clear
10:16 PM 26.6 °F - 24.8 °F 93% 29.95 in 1.8 mi Calm Calm - N/A   Clear
10:26 PM 24.8 °F - 21.2 °F 86% 29.95 in 0.8 mi Calm Calm - N/A   Mist
10:37 PM 24.8 °F - 23.0 °F 93% 29.95 in 1.2 mi Calm Calm - N/A   Partly Cloudy
10:48 PM 24.8 °F - 21.2 °F 86% 29.95 in 2.0 mi Calm Calm - N/A   Partly Cloudy
10:53 PM 24.1 °F - 21.9 °F 91% 30.02 in 4.0 mi Calm Calm - N/A   Clear
11:53 PM 23.0 °F - 21.0 °F 92% 30.01 in 6.0 mi Calm Calm - N/A   Clear